Theta_e
303 303 303 303 303 302 301 302 303 305 312 316 318 320 320 320 320 321 320 321 322 321 321 321 321 321 320 320 320 320 319 318 316 316 315 314 312 298 296 296 296 296 296
303 303 303 304 303 302 301 302 303 303 306 312 316 317 319 320 320 319 319 319 320 320 320 320 319 315 317 318 318 318 318 317 316 315 314 306 297 296 296 296 296 296 295
302 303 303 304 304 304 302 302 303 304 306 313 315 317 318 318 318 317 318 319 319 319 318 317 317 316 316 318 317 316 316 314 309 301 297 296 296 295 295 295 295 295 294
301 302 303 304 305 304 304 303 303 305 307 311 313 315 315 313 314 317 318 317 318 318 317 317 316 316 317 316 314 311 302 297 296 296 296 295 295 295 295 295 295 295 294
301 302 303 304 304 305 305 305 306 307 309 310 312 312 314 314 315 316 317 317 317 316 316 315 315 314 314 312 302 297 296 296 296 295 295 295 295 295 295 294 294 294 294
299 301 302 304 305 305 305 306 308 308 309 310 311 312 312 313 315 314 313 314 313 312 312 313 313 310 301 297 296 296 296 295 295 295 294 294 294 294 294 294 294 294 294
296 302 303 303 304 305 306 307 307 308 308 310 310 311 311 312 313 312 312 311 310 311 309 305 300 296 296 296 296 295 295 294 294 294 294 294 293 293 293 293 293 293 292
297 301 303 303 304 304 304 304 305 306 307 309 309 309 310 310 308 310 310 306 304 300 297 296 295 295 295 294 294 294 294 294 294 293 293 293 293 293 293 292 292 292 292
299 300 298 299 300 300 303 304 303 303 303 304 305 305 305 305 303 300 301 298 296 296 295 295 294 294 294 294 294 294 294 294 293 293 293 293 293 292 292 292 292 292 292
298 300 299 296 295 295 295 300 302 301 300 301 303 301 299 298 297 296 295 294 294 294 294 294 294 294 294 294 293 293 293 293 293 293 293 293 292 292 292 292 292 292 292
294 295 296 295 294 294 294 294 297 299 298 296 299 298 296 295 295 294 294 293 293 294 294 293 293 293 293 293 293 293 293 293 293 292 292 292 292 292 292 291 291 291 291
293 293 293 293 293 293 293 293 293 293 294 294 295 294 295 294 294 293 293 293 293 293 293 293 293 293 293 293 293 293 292 292 292 292 292 292 292 292 292 291 291 291 291
293 293 293 293 292 292 292 292 292 292 292 292 292 293 293 293 293 293 293 293 292 292 292 293 293 293 293 293 292 292 292 292 292 292 292 292 292 291 291 291 291 291 291
294 293 293 293 293 292 292 292 292 292 293 293 292 292 293 293 293 293 293 293 292 292 292 292 292 292 292 292 292 292 292 292 292 291 291 291 291 291 291 290 290 290 290
294 294 293 293 293 293 292 292 292 292 292 292 292 292 292 292 292 292 292 292 292 292 292 292 292 292 292 292 292 292 292 291 291 291 291 291 290 290 290 290 290 290 290
295 294 294 294 293 293 293 293 293 292 292 292 292 292 292 292 292 292 292 292 292 292 292 292 292 292 292 292 292 292 291 291 291 290 290 290 290 290 289 289 289 289 289
296 295 294 294 293 293 293 293 293 293 292 292 292 292 292 292 292 292 292 292 292 292 293 292 292 292 292 292 291 291 291 291 291 290 290 290 290 289 289 289 289 289 289
297 296 296 295 294 294 293 293 293 293 292 293 292 292 293 292 292 292 292 291 292 293 293 292 292 292 292 291 291 291 291 291 291 290 290 289 289 289 289 288 288 288 288
300 298 296 295 295 294 294 294 293 293 293 293 292 293 293 292 292 292 292 292 292 292 292 292 291 291 291 291 290 290 290 290 290 290 289 289 289 288 288 288 288 288 288
301 300 299 297 296 295 294 294 294 293 293 293 293 293 292 292 292 292 292 292 292 292 291 291 291 291 291 290 290 289 289 289 289 289 289 288 288 288 288 288 287 287 286
299 301 301 299 298 297 296 295 294 294 294 294 294 293 292 292 292 292 292 292 292 291 291 291 290 290 290 289 289 289 289 289 289 288 288 288 288 287 287 287 287 285 284
297 298 299 300 300 300 299 297 295 295 294 294 294 294 293 292 292 292 292 292 292 292 291 291 290 290 289 289 289 289 288 288 288 288 288 287 287 287 287 287 286 285 283
298 297 296 297 298 299 299 299 298 297 296 295 294 294 293 293 293 293 293 293 292 292 291 291 290 290 289 289 289 288 288 288 288 287 287 287 287 286 286 286 286 285 283
298 297 297 296 296 296 296 297 297 298 298 297 296 295 295 294 293 293 293 293 293 293 292 291 291 290 290 289 289 288 288 288 287 287 286 286 286 286 286 286 286 286 285
297 295 295 295 295 295 295 296 299 298 297 297 297 296 296 296 295 294 294 293 293 293 293 292 291 290 290 289 289 288 288 287 286 286 286 286 286 286 285 285 285 285 284
295 295 294 294 294 294 294 294 296 296 296 295 295 296 296 297 297 296 294 294 293 293 292 292 292 291 290 290 289 288 287 287 286 286 285 285 285 285 285 285 285 285 284
Wind_Speed
9 9 8 7 7 7 10 13 18 18 19 21 19 18 15 14 15 16 10 11 13 13 10 15 14 14 8 8 6 10 14 15 14 16 15 15 16 14 14 14 15 15 14
10 9 7 7 6 5 6 8 11 13 15 16 14 15 12 12 12 8 9 8 7 7 5 5 2 4 10 8 8 8 9 9 11 12 13 12 10 10 10 11 12 11 12
10 10 8 6 5 3 2 3 4 7 9 9 10 9 8 9 8 8 8 7 8 3 3 5 6 4 5 7 5 6 6 8 8 7 6 5 6 5 6 8 9 7 11
6 9 8 6 6 5 3 2 4 7 10 12 12 12 8 9 9 6 7 7 7 10 10 9 8 7 5 3 2 5 3 2 2 1 1 2 4 5 5 5 6 5 9
9 7 7 6 7 5 5 5 6 8 10 11 10 8 9 8 9 9 9 10 11 8 6 5 5 5 3 4 4 3 2 2 1 2 2 2 2 4 8 13 13 11 10
6 4 6 7 7 7 5 6 7 7 6 8 8 8 7 9 10 9 7 7 7 4 3 3 4 4 5 5 5 4 5 4 3 4 4 5 8 11 13 15 15 14 19
4 1 4 5 7 7 7 7 4 6 7 7 8 7 8 8 9 7 4 5 3 5 5 5 6 8 7 7 7 6 6 5 5 7 8 10 12 14 13 14 15 13 20
4 3 4 4 4 4 5 5 5 6 7 6 5 4 5 7 8 6 4 5 5 6 8 8 8 8 9 9 9 8 8 8 9 10 10 12 13 12 13 15 16 14 16
4 4 3 3 3 2 4 2 1 3 5 6 5 4 3 5 7 8 7 6 6 6 8 8 8 7 8 8 9 8 8 9 11 12 12 12 13 13 14 14 16 18 13
1 2 2 3 3 4 6 6 5 6 4 4 4 4 5 6 8 8 7 5 5 6 8 9 9 8 9 9 9 9 8 9 10 10 11 10 10 12 13 15 17 19 21
0 1 0 1 2 4 5 6 6 6 5 4 5 5 7 6 8 8 9 7 6 6 8 8 9 8 8 8 8 8 7 7 9 9 8 8 10 11 13 15 15 17 19
2 2 3 2 2 3 4 5 5 7 7 7 8 8 8 8 9 9 8 9 7 7 6 7 7 7 8 7 7 7 6 6 6 6 6 8 9 11 13 13 13 15 17
5 3 4 4 3 2 3 5 5 5 6 8 8 9 9 9 8 8 8 8 7 6 4 4 6 6 7 7 7 6 5 5 5 5 5 6 7 9 11 12 12 13 15
9 8 6 6 6 5 4 5 6 6 7 9 9 9 9 8 8 7 6 6 6 5 6 7 7 8 8 7 6 6 6 5 5 5 4 4 5 7 9 10 12 13 12
13 13 12 10 8 8 8 8 8 9 9 10 10 11 10 10 10 10 9 10 9 9 9 9 9 9 7 7 8 8 7 7 6 6 6 5 5 5 7 7 8 9 9
19 18 16 15 14 12 12 12 12 13 12 12 13 12 12 12 12 13 13 12 11 11 12 11 11 11 11 12 12 11 11 10 8 7 6 5 4 4 5 5 5 6 7
22 21 21 20 19 18 17 15 15 15 16 16 16 15 15 15 16 16 16 16 16 17 17 16 16 16 15 15 15 15 15 13 11 10 9 8 7 6 6 5 4 5 5
28 26 25 25 24 23 22 21 20 20 20 20 19 19 20 20 20 20 19 21 24 24 21 21 20 20 19 17 18 18 18 17 15 13 13 12 12 11 9 7 5 4 4
35 32 31 29 29 27 27 26 26 26 25 24 25 27 25 24 24 24 26 28 26 26 23 23 21 22 21 20 20 20 21 20 19 17 16 16 16 15 13 10 8 6 5
39 38 36 34 33 33 33 33 32 32 32 31 31 29 26 28 30 30 31 30 28 27 24 24 23 23 24 24 23 23 23 23 22 20 20 19 19 18 17 14 12 10 8
39 39 39 40 39 37 38 38 38 37 36 35 34 32 31 32 32 32 31 31 31 28 27 26 25 25 25 25 26 25 25 25 24 23 23 23 22 20 20 18 16 14 11
34 39 41 43 42 43 42 42 42 41 40 39 37 36 35 36 36 36 35 34 33 31 30 29 29 29 29 28 26 26 26 26 26 26 25 25 24 23 23 21 20 18 15
34 35 36 38 42 43 44 44 45 45 44 43 42 41 40 41 39 38 38 36 34 33 33 32 32 33 32 31 30 29 28 27 25 25 26 26 26 26 25 24 23 22 20
34 34 36 38 37 39 40 37 40 45 47 47 46 45 44 43 42 39 38 38 37 35 35 34 35 35 34 34 32 31 29 28 27 27 27 28 28 27 27 27 27 25 23
33 32 30 32 36 39 40 40 40 43 44 44 44 44 44 44 44 41 39 39 39 39 37 36 36 35 36 35 34 32 31 29 29 29 30 30 30 30 30 30 28 28 27
29 30 29 28 28 30 33 36 37 38 41 40 38 38 38 39 40 39 39 39 39 39 38 37 36 36 36 35 34 34 33 31 31 31 31 32 32 33 33 33 31 32 30
Wind_Direction
353 352 346 329 311 295 274 249 235 229 228 226 220 219 228 243 238 237 240 253 241 249 273 261 273 251 256 239 256 257 252 248 246 247 259 284 303 310 318 322 329 329 326
355 358 360 351 329 308 270 249 230 218 215 218 221 219 227 229 234 235 247 259 250 240 273 254 255 345 301 297 270 263 260 257 250 253 264 286 299 313 325 330 330 336 343
0 2 4 2 4 355 304 248 199 195 193 184 198 196 210 218 202 231 250 227 204 240 193 186 179 181 249 269 267 253 279 275 270 257 259 280 304 327 334 338 344 350 1
354 6 7 15 30 37 56 101 159 160 169 179 178 184 197 233 225 213 220 202 208 199 218 218 220 228 218 228 237 261 261 255 237 210 252 332 348 356 2 23 24 33 24
13 15 17 32 45 65 82 106 130 150 159 172 182 194 190 180 181 195 181 186 201 217 215 213 216 177 194 225 200 178 131 120 101 98 65 45 44 35 33 32 29 29 25
14 16 32 51 59 59 91 102 127 141 145 154 172 168 180 169 163 168 178 205 212 191 197 220 216 206 167 154 146 132 114 132 131 92 93 79 60 50 35 29 26 30 31
29 41 52 82 67 63 75 90 128 138 145 156 162 182 186 178 191 192 212 230 254 200 194 188 168 153 148 148 144 139 130 127 98 85 70 66 59 52 40 31 33 35 29
54 113 117 96 82 58 73 92 113 132 149 159 159 173 185 192 193 202 208 197 208 183 155 152 152 144 140 131 119 115 113 108 94 84 73 62 53 49 42 35 32 39 40
85 97 85 81 82 113 162 174 126 142 136 132 142 129 142 159 160 153 161 169 162 164 157 143 143 143 130 129 119 111 113 107 90 77 67 57 50 46 42 37 37 33 46
65 89 64 62 91 121 128 139 127 133 133 142 175 147 138 151 148 133 131 141 155 159 156 156 153 143 144 138 128 115 96 88 83 74 65 58 54 50 47 41 35 33 37
44 298 308 101 122 121 119 121 138 128 115 134 165 154 143 155 149 160 155 149 155 163 161 157 154 155 142 136 124 111 105 97 87 82 76 70 61 56 54 48 41 36 36
238 285 293 267 165 139 132 136 141 141 154 164 169 171 174 173 168 166 168 164 162 165 171 168 165 162 153 137 127 124 129 114 104 98 83 72 67 59 59 58 46 41 39
237 251 276 273 263 214 173 160 157 169 180 178 178 176 174 172 175 179 184 174 169 173 174 194 194 180 172 164 156 159 156 146 135 113 99 86 74 66 58 57 56 44 42
242 240 242 258 260 254 240 211 190 187 198 191 183 183 178 182 186 187 190 190 187 194 209 216 211 207 197 189 194 197 193 181 170 160 152 125 91 72 63 55 50 49 45
239 240 240 236 242 250 247 242 231 217 212 209 206 203 196 194 198 202 204 202 201 206 217 224 228 227 224 225 225 225 223 214 206 201 193 165 129 105 91 71 61 54 53
248 244 244 242 239 238 239 240 241 240 234 228 225 222 220 219 219 217 215 220 224 226 228 231 235 237 240 244 243 240 238 232 226 223 225 217 190 155 134 115 91 73 64
252 255 251 248 244 242 241 242 241 241 241 240 238 234 234 232 229 232 231 233 234 235 238 239 240 241 241 247 252 250 244 239 235 232 232 233 229 215 182 160 130 108 88
247 245 246 250 251 249 247 245 243 243 242 240 239 240 241 241 241 239 241 242 240 242 241 244 245 247 247 250 254 255 250 243 240 236 236 233 232 230 218 198 182 156 128
244 244 244 243 245 247 248 248 248 246 244 243 240 240 239 239 240 241 242 244 247 249 250 251 253 252 251 250 250 251 251 247 241 236 236 234 233 231 224 214 203 196 180
247 245 244 244 245 245 247 246 245 245 246 246 246 248 245 244 245 248 251 254 253 254 252 253 253 254 254 252 249 248 249 247 244 240 236 233 230 229 228 222 215 208 201
246 246 249 248 246 245 247 249 250 250 250 250 251 251 250 250 253 255 256 257 259 257 255 255 255 254 253 252 250 248 249 247 244 239 236 233 231 230 228 224 220 218 216
248 248 246 249 250 249 249 249 250 252 253 254 254 253 253 252 254 255 257 258 259 261 259 255 253 253 253 252 252 250 249 249 247 242 238 234 231 229 229 228 225 224 224
253 252 253 250 249 251 252 252 253 254 255 256 257 257 255 256 255 257 260 261 261 260 260 258 256 255 254 254 253 252 250 249 248 246 242 238 234 233 233 233 232 230 229
255 255 252 252 251 251 251 253 262 257 255 256 257 257 258 259 260 260 260 262 262 261 259 258 255 254 252 252 252 252 251 248 244 241 238 236 234 233 233 234 235 237 237
252 253 254 253 252 253 254 254 254 262 265 261 259 260 261 261 261 261 260 259 259 258 258 257 256 255 254 252 251 251 250 247 244 241 239 237 235 235 236 238 238 239 241
256 254 252 252 254 256 255 255 258 259 260 264 264 263 263 264 264 264 261 259 259 259 259 257 255 253 252 251 250 248 247 245 243 241 240 239 238 238 239 241 241 242 242